www.pogodaiklimat.ru

Погода и климат >> Архив погоды >> Норвегия >> Ona II


ПОГОДА в Ona II

  • Прогноз погоды в Ona II
  • Монитор погоды в Ona II
  • Климат города

АРХИВ ПОГОДЫ в Ona II

Время (UTC), дата Ветер
(напр.,м/с)
 
Видим.   Явления Облачность Т
(С)
Тd
(С)
f
(%)
Тe
(С)
Тes
(С)
Комфортность P
(гПа)
Po
(гПа)
Тmin
(С)
Tmax
(С)
R
(мм)
R24
(мм)
S
(см)
22 11.12 Ю 5
{7}
н/о н/о +2.5 -1.6 74 -3 -3 996.2 994.4
23 11.12 Ю 6
{7}
н/о н/о +2.5 -1.5 75 -3 -3 996.1 994.3
00 12.12 Ю 6
{8}
н/о н/о +2.5 -1.6 74 -3 -3 996.1 994.3
01 12.12 ЮЗ 7
{9}
н/о н/о +2.4 -1.9 73 -4 -4 996.0 994.2
02 12.12 Ю 8
{9}
н/о н/о +1.8 -0.8 83 -5 -5 995.8 994.0
03 12.12 Ю 8
{9}
н/о н/о +2.4 -1.9 73 -4 -4 995.6 993.8
04 12.12 Ю 7
{9}
н/о н/о +2.6 -1.7 73 -3 -3 995.6 993.8
05 12.12 Ю 8
{9}
н/о н/о +2.2 -2.3 72 -4 -4 995.7 993.9
06 12.12 Ю 8
{9}
н/о н/о +2.3 -2.2 72 -4 -4 995.5 993.7 +1.6 +2.8
07 12.12 Ю 9
{11}
н/о н/о +2.2 -2.5 71 -5 -5 995.4 993.6
08 12.12 Ю 9
{10}
н/о н/о +2.0 -2.7 71 -5 -5 995.2 993.4
09 12.12 Ю 8
{10}
н/о н/о +2.1 -2.4 72 -4 -4 994.9 993.1
10 12.12 Ю 10
{11}
н/о н/о +2.3 -2.4 71 -5 -5 994.7 992.9
11 12.12 Ю 10
{12}
н/о н/о +2.2 -2.5 71 -5 -5 994.5 992.7
12 12.12 Ю 10
{12}
н/о н/о +2.3 -3.0 68 -5 -5 994.3 992.5
13 12.12 Ю 10
{12}
н/о н/о +2.5 -1.6 74 -5 -5 993.8 992.0
14 12.12 ЮЗ 12
{14}
н/о н/о +1.9 -0.3 85 -6 -6 993.4 991.6
15 12.12 Ю 10
{14}
н/о н/о +1.6 +0.1 90 -6 -6 993.4 991.6
16 12.12 ЮЗ 13
{15}
н/о н/о +1.8 +0.2 89 -7 -7 993.1 991.3
17 12.12 ЮЗ 11
{15}
н/о н/о +1.6 +0.1 90 -6 -6 992.9 991.1
18 12.12 ЮЗ 12
{15}
н/о н/о +2.6 -0.8 78 -5 -5 991.9 990.1 +1.2 +2.6
19 12.12 ЮЗ 13
{16}
н/о н/о +3.5 -0.7 74 -4 -4 991.5 989.7
20 12.12 ЮЗ 13
{16}
н/о н/о +3.5 -0.7 74 -4 -4 991.5 989.7
21 12.12 ЮЗ 13
{18}
н/о н/о +3.7 -1.8 67 -4 -4 990.6 988.8
22 12.12 ЮЗ 11
{17}
н/о н/о +2.6 -0.5 80 -5 -5 990.5 988.7
23 12.12 ЮЗ 13
{17}
н/о н/о +3.5 -1.2 71 -4 -4 989.7 987.9
00 13.12 ЮЗ 12
{18}
н/о н/о +4.1 -2.1 64 -3 -3 988.9 987.1
01 13.12 ЮЗ 16
{20}
н/о н/о +2.2 -0.7 81 -7 -7 988.6 986.8
02 13.12 ЮЗ 11
{16}
н/о н/о +4.2 -1.4 67 -3 -3 988.2 986.4
03 13.12 ЮЗ 12
{18}
н/о н/о +3.8 -1.3 69 -3 -3 987.7 985.9
04 13.12 ЮЗ 13
{15}
н/о н/о +4.7 -1.9 62 -2 -2 986.8 985.0
05 13.12 ЮЗ 12
{15}
н/о н/о +4.7 -1.9 62 -2 -2 986.3 984.5
06 13.12 ЮЗ 8
{20}
н/о н/о +4.8 -1.8 62 -1 -1 985.8 984.1 +2.0 +4.8
07 13.12 Ю 6
{9}
н/о н/о +4.7 -1.9 62 -0 -0 985.3 983.6
08 13.12 Ю 5
{7}
н/о н/о +4.8 -1.8 62 +1 +1 984.7 983.0
09 13.12 Ю 5
{7}
н/о н/о +5.0 -2.8 57 +1 +1 984.1 982.4
10 13.12 ЮВ 5
{6}
н/о н/о +4.7 -3.3 56 +1 +1 983.4 981.7
11 13.12 В 6
{8}
н/о н/о +4.2 -2.4 62 -1 -1 982.7 981.0
12 13.12 ЮВ 7
{9}
н/о н/о +4.5 -3.0 58 -1 -1 981.6 979.9
13 13.12 ЮВ 6
{8}
н/о н/о +4.6 -3.9 54 -0 -0 981.0 979.3
14 13.12 ЮВ 7
{8}
н/о н/о +4.5 -4.2 53 -1 -1 980.4 978.7
15 13.12 Ю 4
{11}
н/о н/о +2.6 -1.2 76 -2 -2 980.5 978.7
16 13.12 ЮВ 7
{9}
н/о н/о +1.1 -0.5 89 -6 -6 980.4 978.6
17 13.12 В 7
{9}
н/о н/о +1.3 -0.5 88 -5 -5 980.1 978.3
18 13.12 В 7
{11}
н/о н/о +1.4 +0.3 92 -5 -5 979.7 977.9 +1.1 +5.1
19 13.12 В 6
{10}
н/о н/о +1.7 -0.1 88 -5 -5 979.6 977.8
20 13.12 В 6
{8}
н/о н/о +2.4 -0.2 83 -4 -4 979.5 977.7
21 13.12 В 6
{7}
н/о н/о +2.7 -0.4 80 -3 -3 979.2 977.5
22 13.12 В 5
{7}
н/о н/о +2.7 -0.7 78 -3 -3 979.2 977.5
23 13.12 В 5
{7}
н/о н/о +2.7 -0.9 77 -3 -3 979.5 977.7
00 14.12 В 5
{10}
н/о н/о +3.0 -1.5 72 -2 -2 979.5 977.8
01 14.12 В 6
{7}
н/о н/о +2.9 -1.3 74 -3 -3 979.4 977.7
02 14.12 В 6
{8}
н/о н/о +2.8 -1.0 76 -3 -3 979.1 977.4
03 14.12 В 5
{7}
н/о н/о +2.7 -1.6 73 -2 -2 979.1 977.4
04 14.12 В 4
{6}
н/о н/о +2.4 -1.6 75 -2 -2 979.2 977.4
05 14.12 В 4
{6}
н/о н/о +2.5 -1.8 73 -2 -2 979.3 977.5
06 14.12 В 5
{8}
н/о н/о +2.7 -0.7 78 -3 -3 979.3 977.6 +1.3 +3.0
07 14.12 В 7
{9}
н/о н/о +2.8 -0.8 77 -3 -3 979.5 977.8
08 14.12 В 9
{11}
н/о н/о +3.0 -1.2 74 -4 -4 980.0 978.3
09 14.12 СВ 8
{12}
н/о н/о +3.0 -0.6 77 -3 -3 980.6 978.8
10 14.12 СВ 8
{12}
н/о н/о +2.8 -0.6 78 -4 -4 981.4 979.6
11 14.12 СВ 9
{12}
н/о н/о +2.6 -0.8 78 -4 -4 981.7 979.9
12 14.12 СВ 8
{12}
н/о н/о +2.7 -0.9 77 -4 -4 982.1 980.3
13 14.12 В 5
{11}
н/о н/о +1.8 -2.7 72 -4 -4 982.9 981.1
14 14.12 СВ 8
{12}
н/о н/о +2.1 -1.1 79 -5 -5 983.4 981.6
15 14.12 СВ 9
{12}
н/о н/о +2.1 -2.2 73 -5 -5 984.0 982.2
16 14.12 СВ 8
{12}
н/о н/о +2.0 -1.6 77 -5 -5 984.7 982.9
17 14.12 СВ 10
{14}
н/о н/о +1.9 -2.0 75 -5 -5 985.3 983.5
18 14.12 СВ 11
{14}
н/о н/о +1.7 -3.0 71 -6 -6 985.9 984.1 +1.6 +3.2
19 14.12 СВ 10
{14}
н/о н/о +1.8 -2.3 74 -6 -6 986.7 984.9
20 14.12 СВ 10
{14}
н/о н/о +1.9 -3.0 70 -5 -5 987.3 985.5
21 14.12 СВ 8
{13}
н/о н/о +2.0 -2.5 72 -5 -5 988.3 986.5
22 14.12 В 7
{11}
н/о н/о +1.9 -2.6 72 -4 -4 988.9 987.1
23 14.12 СВ 7
{9}
н/о н/о +1.8 -2.9 71 -4 -4 989.4 987.6
00 15.12 В 6
{14}
н/о н/о +1.6 -2.9 72 -4 -4 989.8 988.0
01 15.12 В 3
{8}
н/о н/о +1.0 -3.8 70 -3 -3 990.4 988.6
02 15.12 В 3
{5}
н/о н/о +0.8 -4.6 67 -3 -3 990.9 989.1
03 15.12 В 1
{3}
н/о н/о +0.9 -4.7 66 -1 -1 991.3 989.5
04 15.12 штиль 0
{2}
н/о н/о +0.6 -4.8 67 -0 -0 991.6 989.8
05 15.12 штиль 0
{4}
н/о н/о +1.2 -3.1 73 0 0 992.1 990.3
06 15.12 Ю 1
{8}
н/о н/о +1.5 -1.4 81 -0 -0 992.4 990.6 +0.4 +2.2
07 15.12 ЮЗ 3
{4}
н/о н/о +2.1 -0.6 82 -2 -2 993.0 991.2
08 15.12 ЮЗ 5
{7}
н/о н/о +2.2 +0.3 87 -3 -3 993.0 991.2
09 15.12 ЮЗ 4
{6}
н/о н/о +2.4 +0.2 85 -2 -2 993.6 991.8
10 15.12 СЗ 4
{6}
н/о н/о +2.4 +0.5 87 -3 -3 993.7 991.9
11 15.12 ЮЗ 4
{7}
н/о н/о +2.8 +0.5 85 -2 -2 994.2 992.4
12 15.12 З 5
{8}
н/о н/о +1.7 +0.4 91 -4 -4 994.3 992.5 2
13 15.12 З 4
{5}
н/о н/о +1.9 +0.3 89 -3 -3 994.7 992.9
14 15.12 З 4
{8}
н/о н/о +1.9 -0.2 86 -3 -3 994.9 993.1
15 15.12 ЮЗ 3
{5}
н/о н/о +2.2 -0.5 82 -2 -2 995.3 993.5
16 15.12 З 6
{7}
н/о н/о +2.7 0.0 82 -3 -3 995.6 993.8
17 15.12 З 7
{10}
н/о н/о +1.1 -0.3 90 -6 -6 995.9 994.1
18 15.12 ЮЗ 6
{10}
н/о н/о +1.4 +0.4 93 -5 -5 996.5 994.7 +0.9 +2.9
19 15.12 Ю 7
{9}
н/о н/о +1.6 +0.3 91 -5 -5 997.0 995.2
20 15.12 Ю 6
{8}
н/о н/о +1.6 +0.6 93 -5 -5 997.5 995.7
21 15.12 Ю 6
{7}
н/о н/о +2.2 +1.0 92 -4 -4 997.7 995.9
22 15.12 З 7
{9}
н/о н/о +1.9 +0.4 90 -5 -5 997.8 996.0
23 15.12 З 6
{9}
н/о н/о +1.6 +0.1 90 -5 -5 998.3 996.5
00 16.12 ЮЗ 6
{9}
н/о н/о +2.1 +0.6 90 -4 -4 998.7 996.9
01 16.12 ЮЗ 5
{7}
н/о н/о +1.6 +0.3 91 -4 -4 999.0 997.2
02 16.12 ЮЗ 6
{7}
н/о н/о +2.1 +0.5 89 -4 -4 999.6 997.8
03 16.12 З 4
{7}
н/о н/о +1.5 -0.1 89 -4 -4 1000.4 998.6
04 16.12 Ю 6
{7}
н/о н/о +2.1 +0.6 90 -4 -4 1000.4 998.6
05 16.12 ЮЗ 7
{8}
н/о н/о +2.3 +1.0 91 -4 -4 1001.0 999.2
06 16.12 Ю 5
{8}
н/о н/о +2.2 +0.7 90 -3 -3 1001.7 999.9 +1.3 +2.6
07 16.12 ЮЗ 6
{7}
н/о н/о +2.3 +1.0 91 -4 -4 1002.3 1000.5
08 16.12 З 5
{7}
н/о н/о +2.6 +1.0 89 -3 -3 1003.1 1001.3
09 16.12 СЗ 4
{8}
н/о н/о +3.2 -0.6 76 -1 -1 1003.9 1002.1
10 16.12 СЗ 3
{9}
н/о н/о +2.2 -0.7 81 -2 -2 1004.8 1003.0
11 16.12 ЮЗ 5
{10}
н/о н/о +2.3 +0.2 86 -3 -3 1005.5 1003.7
12 16.12 Ю 7
{10}
н/о н/о +2.6 +1.1 90 -4 -4 1005.9 1004.1
13 16.12 ЮЗ 8
{11}
н/о н/о +2.5 +1.0 90 -4 -4 1006.1 1004.3
14 16.12 ЮЗ 4
{12}
н/о н/о +2.4 +0.5 87 -3 -3 1007.3 1005.5
15 16.12 З 5
{8}
н/о н/о +4.4 -1.8 64 -0 -0 1007.5 1005.7
16 16.12 З 10
{13}
н/о н/о +3.2 -0.1 79 -4 -4 1008.3 1006.5
17 16.12 З 10
{12}
н/о н/о +2.9 -0.4 79 -4 -4 1008.7 1006.9
18 16.12 ЮЗ 5
{13}
н/о н/о +3.8 +0.7 80 -1 -1 1009.7 1007.9 +1.8 +4.6
19 16.12 З 9
{11}
н/о н/о +4.1 +1.2 81 -2 -2 1009.8 1008.0
20 16.12 З 5
{13}
н/о н/о +4.8 -0.6 68 0 0 1010.1 1008.3
21 16.12 ЮЗ 11
{13}
н/о н/о +2.7 +0.6 86 -5 -5 1010.3 1008.5
22 16.12 ЮЗ 10
{13}
н/о н/о +3.2 +0.9 85 -4 -4 1010.8 1009.0
23 16.12 Ю 9
{13}
н/о н/о +3.4 +0.6 82 -3 -3 1010.8 1009.0
00 17.12 ЮЗ 11
{15}
н/о н/о +3.0 +0.6 84 -4 -4 1010.7 1008.9
01 17.12 ЮЗ 10
{17}
н/о н/о +2.9 +1.1 88 -4 -4 1010.6 1008.8
02 17.12 З 12
{16}
н/о н/о +4.2 0.0 74 -3 -3 1010.5 1008.7
03 17.12 З 11
{15}
н/о н/о +2.5 +0.6 87 -5 -5 1010.7 1008.9
04 17.12 З 9
{13}
н/о н/о +3.2 +0.8 84 -4 -4 1010.3 1008.5 0.1
05 17.12 ЮЗ 9
{17}
н/о н/о +2.3 +0.7 89 -5 -5 1010.0 1008.2
06 17.12 ЮЗ 10
{17}
н/о н/о +3.3 -0.7 75 -4 -4 1009.1 1007.3 +1.5 +4.9
07 17.12 ЮЗ 10
{14}
н/о н/о +3.8 -0.8 72 -3 -3 1008.8 1007.0
08 17.12 ЮЗ 11
{14}
н/о н/о +3.9 -1.8 66 -3 -3 1008.3 1006.5
09 17.12 ЮЗ 10
{14}
н/о н/о +4.1 -1.4 67 -2 -2 1007.7 1005.9
10 17.12 ЮЗ 11
{14}
н/о н/о +4.3 -2.5 61 -2 -2 1007.2 1005.4
11 17.12 Ю 10
{13}
н/о н/о +4.5 -2.6 60 -2 -2 1006.3 1004.5
12 17.12 Ю 10
{15}
н/о н/о +4.6 -2.5 60 -2 -2 1005.6 1003.8
13 17.12 Ю 8
{12}
н/о н/о +4.8 -2.0 61 -1 -1 1004.7 1002.9
14 17.12 Ю 8
{12}
н/о н/о +4.8 -2.5 59 -1 -1 1004.1 1002.3
15 17.12 Ю 8
{11}
н/о н/о +4.9 -2.6 58 -1 -1 1003.2 1001.4
16 17.12 Ю 8
{10}
н/о н/о +4.9 -2.2 60 -1 -1 1002.9 1001.1
17 17.12 Ю 10
{12}
н/о н/о +4.6 -1.4 65 -2 -2 1002.2 1000.4
18 17.12 ЮВ 9
{12}
н/о н/о +5.0 -1.2 64 -1 -1 1001.4 999.6 +3.2 +5.1
19 17.12 Ю 8
{12}
н/о н/о +5.7 -1.0 62 +1 +1 1000.8 999.0
20 17.12 Ю 9
{11}
н/о н/о +5.9 +0.3 67 0 0 1001.2 999.4
21 17.12 Ю 8
{12}
н/о н/о +6.1 +1.5 72 +1 +1 1001.5 999.7
22 17.12 ЮЗ 12
{16}
н/о н/о +6.8 +1.7 70 +1 +1 1001.6 999.8
23 17.12 ЮЗ 14
{19}
н/о н/о +6.5 +1.4 70 0 0 1002.2 1000.4
00 18.12 ЮЗ 13
{19}
н/о н/о +6.7 +2.4 74 0 0 1003.4 1001.6
01 18.12 ЮЗ 15
{18}
н/о н/о +6.7 +2.2 73 0 0 1004.0 1002.2
02 18.12 ЮЗ 16
{20}
н/о н/о +5.9 +3.9 87 -2 -2 1005.1 1003.3
03 18.12 З 14
{16}
н/о н/о +6.4 +1.9 73 -0 -0 1007.1 1005.3
04 18.12 З 13
{16}
н/о н/о +6.5 +1.0 68 0 0 1008.6 1006.8
05 18.12 З 12
{16}
н/о н/о +6.7 0.0 62 +1 +1 1010.0 1008.2
06 18.12 З 13
{20}
н/о н/о +6.5 -0.9 59 0 0 1010.8 1009.0 +5.0 +6.9
07 18.12 З 14
{17}
н/о н/о +6.1 +0.7 68 -1 -1 1012.0 1010.2
08 18.12 З 12
{17}
н/о н/о +6.3 0.0 64 0 0 1013.3 1011.5
09 18.12 З 13
{17}
н/о н/о +6.3 +0.4 66 0 0 1014.0 1012.2
10 18.12 З 12
{16}
н/о н/о +6.5 +0.2 64 +1 +1 1015.0 1013.2
11 18.12 З 13
{16}
н/о н/о +6.7 +1.0 67 +1 +1 1015.1 1013.3
12 18.12 З 13
{17}
н/о н/о +6.2 +1.7 73 -0 -0 1015.9 1014.1
13 18.12 З 12
{17}
н/о н/о +7.1 +1.2 66 +1 +1 1016.6 1014.8
14 18.12 З 13
{15}
н/о н/о +6.2 +2.5 77 -0 -0 1017.2 1015.4
15 18.12 ЮЗ 12
{15}
н/о н/о +5.8 +2.8 81 -1 -1 1017.6 1015.8
16 18.12 ЮЗ 11
{15}
н/о н/о +5.1 +2.5 83 -2 -2 1017.6 1015.8
17 18.12 ЮЗ 8
{13}
н/о н/о +5.2 +2.1 80 -1 -1 1017.6 1015.8
18 18.12 ЮЗ 7
{17}
н/о н/о +5.8 +2.1 77 +1 +1 1018.3 1016.5 +5.0 +7.3
19 18.12 Ю 6
{10}
н/о н/о +6.0 +1.6 73 +1 +1 1018.5 1016.7
20 18.12 Ю 6
{8}
н/о н/о +6.3 +2.0 74 +2 +2 1018.0 1016.2
21 18.12 Ю 8
{9}
н/о н/о +6.5 +1.6 71 +1 +1 1017.8 1016.0

 

Местоположение метеостанции Ona II (Норвегия): широта 62.86 долгота 6.54 высота над уровнем моря 13 м.

В архиве по умолчанию представлена погода в Ona II за последнюю неделю. Архивные данные за месяц целиком и за предыдущие месяцы, начиная с января 2011 года, Вы можете получить, выбрав интересующий диапазон дат из раскрывающегося списка и нажав кнопку "Ввод!".

Внимание! Время в таблицах - всемирное. Для получения местного времени необходимо прибавить поправку, которая в Ona II равна 1 ч.

Смотрите также архив погоды в соседних городах и на ближайших метеорологических станциях:

Погода в Rekdal (Норвегия) (26 км)
Погода в Molde Lufthavn (Норвегия) (39 км)
Погода в Alesund Lufthavn (Норвегия) (39 км)
Погода в Lebergsfjellet (Норвегия) (41 км)
Погода в Alesund IV (Норвегия) (47 км)
Погода в Kristiansund Lufthavn (Норвегия) (70 км)
Погода в Mannen (Норвегия) (77 км)
Погода в Orsta-Volda Lufthavn (Норвегия) (79 км)
Погода в Marstein (Норвегия) (81 км)
Погода в Tafjord (Норвегия) (83 км)

Пояснения к столбцам:

Ветер - указаны скорость ветра в м/с - средняя за 10 мин, порывы в срок и между сроками (в фигурных скобках) и направление, откуда дует ветер: С - северный, СВ - северо-восточный, В - восточный, ЮВ - юго-восточный, Ю - южный, ЮЗ - юго-западный, З - западный, СЗ - северо-западный.
Видимость - горизонтальная дальность видимости в метрах или километрах. При видимости от 1 до 10 км при отсутствии осадков обычно наблюдается дымка, при ухудшении видимости до 1 км и менее - туман. В сухую погоду видимость может ухудшаться дымом, пылью или мглою.
Явления - указаны атмосферные явления, наблюдавшиеся в срок или в последний час перед сроком; фигурными скобками обозначены явления, наблюдавшиеся между сроками (за 1-3 часа до срока); квадратными скобками обозначены град или гололедные отложения с указанием их диаметра в мм.
Облачность - указаны через наклонную черту общая и нижняя облачность в баллах и высота нижней границы облаков в метрах; квадратными скобками обозначены формы облаков: Ci - перистые, Cs - перисто-слоистые, Cc - перисто-кучевые, Ac - высококучевые, As - высокослоистые, Sc - слоисто-кучевые, Ns - слоисто-дождевые, Cu - кучевые, Cb - кучево-дождевые. Подробнее классификацию облаков см. в Атласе облаков (PDF).
T - Температура воздуха - температура, измеренная на высоте 2 м над землей.
Td - Температура точки росы - температура, при понижении до которой содержащийся в воздухе водяной пар достигнет насыщения.
f - Относительная влажность воздуха - влажноcть воздуха, измеренная на высоте 2 м над землей.
Te - Эффективная температура - температура, которую ощущает одетый по сезону человек в тени. Характеристика душности погоды. При расчете учитывается влияние влажности воздуха и скорости ветра на теплоощущения человека.
Tes - Эффективная температура на солнце - температура, которую ощущает человек, с поправкой на солнечный нагрев. Характеристика знойности погоды. Зависит от высоты солнца над горизонтом, облачности и скорости ветра. Ночью, в пасмурную погоду, а также при ветре 12 м/с и более поправка равна нулю.
P - Атмосферное давление - приведенное к уровню моря атмосферное давление.
Po - Атмосферное давление - измеренное на уровне метеостанции атмосферное давление.
Tmin - Минимальная температура - минимум температуры воздуха на высоте 2 м над землей.
Tmax - Максимальная температура - максимум температуры воздуха на высоте 2 м над землей.
R - Количество осадков - Количество выпавших осадков за период времени, мм. При наведении курсора мыши на число - период времени, за который выпало указанное количество осадков.
R24 - Количество осадков - Количество выпавших осадков за 24 часа, мм.
S - Снежный покров - Высота снежного покрова, см. При наведении курсора мыши на число - состояние снежного покрова и степень покрытия местности в баллах.